Location: Newark
(51.2625°N, 13.3939°E)
Time: 14:33:20
(UTC+00:00)

deb Explorer IX - Pass Details

Date: 22 November 2019
Orbit: 545 x 1105 km, 38.8° (Epoch: 04 December)

Event Time Altitude Azimuth Distance (km) Brightness Sun altitude
Rises 01:06:43 0° 246° (WSW) 3,713 - -49.2°
Reaches altitude 10° 01:09:59 10° 234° (SW) 2,674 - -48.8°
Maximum altitude 01:14:59 25° 183° (S) 1,704 - -48.1°
Drops below altitude 10° 01:19:27 10° 130° (SE) 2,358 - -47.6°
Sets 01:22:09 0° 117° (ESE) 3,186 - -47.2°
